TIME,DELAY(SENSOR),PRES,T(CTD),SAL,OXYGEN,RAWTEMP,T(OPTODE),TCPHASE,FLUOR,BETA(BETA700),BETA(BETA412),BETA(BETA440),CDOM,C(CSC),ED(ED411.90),ED(ED443.80),ED(ED489.40),ED(ED554.70),LU(LU412.20),LU(LU443.80),LU(LU489.40),LU(LU555.00),COMP,TILTX,TILTX(TILTY),CHECK
1350141098,5805,496.6300048828125000,17.0876007080078120,36.3799018859863300,221.9454040527343800,184.8681030273437500,17.1045207977294920,31.7895202636718750,50,102,75,61,49,12994,2146955648,2147513563,2147270784,2147468589,2147086957,2146954057,2147659053,2147128045,429,-1,8,32756
1350141189,5809,485.7399902343750000,17.2171001434326170,36.4068984985351560,225.6972961425781200,181.1696929931640600,17.2160606384277340,31.5455493927001950,50,101,76,59,48,12992,2146953846,2147514916,2147270034,2147470829,2147086454,2146951149,2147655981,2147125988,98,-1,8,11562
1350141313,5804,471.5700073242187500,17.3987998962402340,36.4416007995605500,227.7993927001953000,175.1320037841797000,17.3981704711914060,31.3568096160888670,50,100,76,60,49,12993,2146958765,2147515785,2147268544,2147468233,2147086372,2146958098,2147651611,2147123657,2897,-1,8,4491
1350141412,5805,461.5000000000000000,17.4724006652832030,36.4556999206543000,228.8815002441406200,172.7451934814453000,17.4701805114746100,31.2701301574707030,50,100,76,60,49,12990,2146957787,2147515492,2147266724,2147468214,2147085385,2146958400,2147656987,2147123529,2323,-1,9,34995
1350141527,5806,450.0000000000000000,17.5485000610351560,36.4712982177734400,229.9187927246093800,170.2006988525390600,17.5469493865966800,31.1838493347167970,51,101,75,61,49,12992,2146958683,2147517805,2147267099,2147464795,2147085577,2146960338,2147653430,2147122486,2406,-1,8,22456
1350141649,5805,439.6600036621094000,17.6285991668701170,36.4864997863769500,231.0538024902343800,167.6331939697265600,17.6244297027587900,31.0928306579589840,50,100,75,60,48,12991,2146957275,2147515355,2147265526,2147464210,2147084589,2146957476,2147656064,2147127369,1635,-1,9,416
1350141812,5809,429.0799865722656000,17.6854991912841800,36.4968986511230500,232.0189971923828000,165.6083984375000000,17.6855392456054700,31.0181102752685550,50,100,76,59,49,12994,2146955730,2147515894,2147264713,2147465481,2147087606,2146956928,2147651163,2147118025,544,-2,9,32901
1350141969,5806,417.0100097656250000,17.7562999725341800,36.5107002258300800,233.4024963378906200,163.1712951660156200,17.7590999603271500,30.9176292419433600,50,101,75,61,50,12993,2146951003,2147515474,2147265344,2147462793,2147084187,2146957266,2147652772,2147121270,226,-1,9,15132
1350142084,5805,406.2300109863281000,17.8328990936279300,36.5243988037109400,234.6786041259765600,160.8874969482422000,17.8280391693115230,30.8250102996826170,50,100,75,60,47,12991,2146958171,2147514157,2147268608,2147463049,2147086564,2146957504,2147654646,2147119451,3152,-1,9,5894
1350142201,5808,395.3800048828125000,17.8791007995605470,36.5326995849609400,235.2048034667968800,159.2980957031250000,17.8760299682617200,30.7782707214355470,50,100,76,61,48,12990,2146956022,2147514925,2147263762,2147464082,2147085796,2146955492,2147647131,2147121645,2694,-1,8,49386
1350142328,5805,383.9200134277344000,17.9353008270263670,36.5410995483398440,235.6811981201172000,157.5012969970703000,17.9302806854248050,30.7312602996826170,51,101,75,60,48,12988,2146957549,2147515492,2147266322,2147461869,2147088521,2146962349,2147651337,2147119460,2236,-1,8,48490
1350142443,5804,373.6400146484375000,17.9657001495361330,36.5469017028808600,236.0503997802734400,156.2870941162109400,17.9669399261474600,30.6972503662109380,51,101,75,61,48,12989,2146958528,2147515309,2147264402,2147462765,2147082944,2146957668,2147648457,2147122404,1983,-1,8,20734
1350142572,5801,362.2799987792969000,18.0195999145507800,36.5533981323242200,235.4712982177734400,154.6651000976562500,18.0159301757812500,30.7034397125244140,50,100,76,60,49,12990,2146955702,2147516772,2147264466,2147461312,2147087369,2146959625,2147651858,2147117220,1584,-1,8,64958
1350142699,5809,351.4500122070312500,18.0746002197265620,36.5596008300781250,235.0755004882812500,152.8867034912109400,18.0696392059326170,30.6986293792724600,51,102,75,60,48,12990,2146956077,2147514258,2147264100,2147458011,2147087213,2146958061,2147652461,2147122066,963,-1,8,41475
1350142828,5808,340.4700012207031000,18.1187992095947270,36.5648002624511700,234.5308074951172000,151.4337005615234400,18.1135292053222660,30.7056198120117200,50,101,75,60,48,12989,2146951990,2147518619,2147262253,2147460653,2147085677,2146959122,2147656621,2147120292,164,-1,8,20585
1350142955,5804,329.9100036621094000,18.1683006286621100,36.5726013183593750,234.7191009521484400,149.7747039794922000,18.1636390686035160,30.6742591857910160,50,101,75,60,48,12990,2146956169,2147515163,2147264941,2147460205,2147084790,2146956653,2147656621,2147122962,3011,-1,9,32503
1350143094,5804,318.6300048828125000,18.2278003692626950,36.5786018371582000,234.0583953857422000,147.7810058593750000,18.2238807678222660,30.6796207427978500,50,100,76,61,48,12989,2146957650,2147514203,2147264493,2147458075,2147081974,2146959890,2147656950,2147125065,2584,-1,9,13969
1350143236,5808,307.1400146484375000,18.3202991485595700,36.5877990722656250,233.1103057861328000,144.8184051513672000,18.3134002685546880,30.6857109069824220,50,104,75,60,49,12986,2146958107,2147517110,2147265426,2147462500,2147086345,2146958400,2147658102,2147122038,1727,-1,9,60117
1350143363,5808,296.5700073242187500,18.3621006011962900,36.5923004150390600,232.3739013671875000,143.3601989746093800,18.3574695587158200,30.7021903991699220,50,100,75,61,49,12988,2146952969,2147515364,2147265005,2147459803,2147085778,2146961654,2147656804,2147119058,1857,-2,8,42919
1350143492,5808,285.8399963378906000,18.4181995391845700,36.5951004028320300,231.0827941894531200,141.5110015869140600,18.4133701324462900,30.7406406402587900,50,101,76,60,49,12988,2146957522,2147517129,2147264228,2147457088,2147086756,2146963373,2147655917,2147119213,1773,-1,9,29700
1350143631,5806,274.5899963378906000,18.5013999938964840,36.6016998291015600,229.5431976318359400,138.8480072021484400,18.4938697814941400,30.7809391021728500,50,101,76,60,49,12987,2146953188,2147515529,2147263698,2147458331,2147086016,2146966665,2147663094,2147128173,879,-1,8,12840
1350143772,5807,263.4599914550781000,18.5820007324218750,36.6054000854492200,228.4987030029297000,135.8345031738281200,18.5849895477294920,30.7923507690429700,51,102,76,60,49,12984,2146954688,2147514916,2147265344,2147460132,2147086427,2146965440,2147673362,2147121545,165,-1,8,62837
1350143911,5805,252.5599975585937500,18.7047004699707030,36.6062011718750000,228.0762023925781200,131.6150054931640600,18.7126197814941400,30.7570590972900400,50,101,74,61,48,12988,2146955318,2147516059,2147266285,2147458834,2147087808,2146982857,2147704457,2147128109,207,-2,8,37765
1350144050,5806,241.7500000000000000,18.8423004150390620,36.6105003356933600,227.6114044189453000,127.5470962524414000,18.8356990814209000,30.7260704040527340,51,99,75,59,48,12986,2146955282,2147516553,2147264073,2147453348,2147085814,2146973723,2147685778,2147125266,665,-2,8,47212
1350144186,5806,229.7400054931640600,18.9659996032714840,36.5945014953613300,227.2664031982422000,123.4093017578125000,18.9609394073486330,30.6881999969482420,50,102,75,61,47,12988,2146954788,2147512676,2147263734,2147453970,2147084434,2146982281,2147695634,2147130898,3362,-1,9,15800
1350144289,5804,219.5500030517578000,19.0641002655029300,36.5848999023437500,233.5606994628906200,120.1512985229492200,19.0595798492431640,30.3370895385742200,50,100,75,61,48,12987,2146957376,2147511542,2147264356,2147457252,2147086756,2146999296,2147722989,2147133001,3171,-2,9,52034
1350144404,5804,208.6100006103515600,19.1926002502441400,36.5806999206543000,239.8995056152343800,115.8831024169921900,19.1888504028320300,29.9813194274902340,50,101,75,61,49,12984,2146956306,2147515465,2147270400,2147454619,2147094720,2147054080,2147815286,2147139017,3047,-1,9,6630
1350144540,5807,197.0200042724609400,19.2998008728027340,36.5817985534668000,245.1665954589843800,112.3649978637695300,19.2954406738281250,29.6935501098632800,52,101,76,60,48,12983,2146954267,2147517906,2147272923,2147456018,2147101284,2147116269,2147928960,2147143616,2783,-1,8,9241
1350144595,5803,192.6399993896484400,19.3213005065917970,36.5819015502929700,245.6372985839843800,111.5542984008789000,19.3200092315673830,29.6619606018066400,51,102,75,60,49,12985,2146954322,2147520841,2147269138,2147454262,2147101494,2147108900,2147900891,2147146852,2514,-1,9,26227
1350144650,5804,188.3000030517578000,19.3241004943847660,36.5755996704101560,246.3954925537109400,111.5229034423828100,19.3209590911865230,29.6272506713867200,53,102,75,60,49,12982,2146956425,2147519570,2147271835,2147454125,2147104128,2147133037,2147932214,2147145353,2147,-2,9,50378
1350144705,5809,183.9700012207031200,19.3595008850097660,36.5778999328613300,246.9113006591797000,110.3351974487304700,19.3569602966308600,29.5888099670410160,56,104,75,59,48,12982,2146952914,2147521828,2147275876,2147453778,2147099218,2147154944,2147981458,2147148077,1825,-2,9,53862
1350144784,5804,178.1900024414062500,19.3848991394042970,36.5788002014160160,247.3831024169922000,109.6930007934570300,19.3764190673828120,29.5592708587646500,58,103,77,62,48,12982,2146954514,2147520228,2147272932,2147452662,2147109376,2147141824,2147940260,2147146477,1664,-1,9,61384
1350144851,5805,173.7599945068359400,19.4160003662109380,36.5812988281250000,247.9642944335937500,108.6224975585937500,19.4088706970214840,29.5195693969726560,60,107,76,61,49,12978,2146957330,2147520868,2147273042,2147453485,2147109952,2147165604,2147976896,2147147675,1467,-1,9,44397
1350144906,5806,170.1999969482422000,19.4503002166748050,36.5847015380859400,247.6614990234375000,107.4125976562500000,19.4455509185791000,29.5172290802001950,59,105,76,61,47,12976,2146954386,2147524845,2147276068,2147453330,2147114578,2147230500,2148085814,2147153060,1333,-2,9,47168
1350144973,5805,165.9499969482422000,19.4708003997802730,36.5867004394531250,246.9452972412109400,106.7221984863281200,19.4664897918701170,29.5404491424560550,60,110,75,60,48,12974,2146957229,2147523584,2147278692,2147451437,2147122422,2147220022,2148050386,2147155538,1341,-2,9,30765
1350145040,5806,161.7100067138672000,19.5002002716064450,36.5901985168457000,246.2837066650390600,105.7873992919921900,19.4948291778564450,29.5579795837402340,59,109,76,60,49,12974,2146957659,2147519177,2147276489,2147453732,2147117339,2147197284,2147995446,2147148205,1159,-2,9,18870
1350145119,5806,157.4100036621093800,19.5160999298095700,36.5909004211425800,245.9851989746093800,105.2432022094726600,19.5113296508789060,29.5643806457519530,60,106,76,61,47,12974,2146959268,2147522514,2147286052,2147453028,2147149915,2147340562,2148247286,2147166345,965,-1,9,9118
1350145210,5807,153.7500000000000000,19.5732994079589840,36.5964012145996100,245.6331024169922000,103.3597030639648400,19.5684604644775400,29.5560798645019530,64,109,76,60,48,12965,2146960996,2147531638,2147296301,2147454427,2147177636,2147489298,2148484096,2147181366,977,-1,9,62301
1350145313,5806,150.0099945068359400,19.6030998229980470,36.6012992858886700,244.8596038818359400,102.3535995483398400,19.5989704132080080,29.5778408050537100,64,110,76,62,48,12967,2146958838,2147521188,2147278034,2147450112,2147136612,2147254884,2148077184,2147153782,1456,-2,9,12108
1350145430,5807,146.2200012207031200,19.6928005218505860,36.6106986999511700,243.9891052246093800,99.5399169921875000,19.6843395233154300,29.5810699462890620,73,115,77,61,48,12964,2146958016,2147535469,2147300982,2147450660,2147205522,2147578907,2148606372,2147187437,1109,-1,9,23309
1350145581,5806,142.0500030517578000,19.7877006530761720,36.6194992065429700,243.0704040527343800,96.4492568969726600,19.7781295776367200,29.5828609466552730,77,114,77,62,49,12962,2146962514,2147546249,2147316946,2147457261,2147263872,2147812425,2148941238,2147212736,521,-2,8,53496
1350145729,5806,137.6600036621093800,19.9064006805419920,36.6286010742187500,242.4252929687500000,92.4057769775390600,19.9008903503417970,29.5600109100341800,85,114,76,60,48,12951,2146961261,2147544630,2147316434,2147453449,2147286738,2147840082,2148962633,2147214875,310,-1,9,24824
1350145820,5806,133.6600036621093800,20.0116996765136720,36.6356010437011700,242.6819000244140600,89.0949172973632800,20.0014591217041000,29.5058097839355470,92,117,77,62,49,12945,2146966464,2147550683,2147329170,2147450285,2147339428,2148065965,2149281014,2147235748,417,-1,9,12401
1350145911,5809,129.3099975585937500,20.0716991424560550,36.6324005126953100,243.5910034179687500,86.9433670043945300,20.0668201446533200,29.4367008209228500,96,119,77,61,49,12937,2146964525,2147545316,2147320859,2147455268,2147338834,2147906944,2148975414,2147220498,483,-1,9,51614
1350145990,5805,125.4199981689453100,20.0962009429931640,36.6353988647460940,244.4250946044922000,86.1173400878906200,20.0919208526611330,29.3883209228515620,102,119,76,60,48,12937,2146973942,2147558546,2147348781,2147451766,2147479122,2148325302,2149600329,2147267410,782,-1,9,59533
1350146072,5807,121.3099975585937500,20.1222000122070300,36.6379013061523440,244.8065948486328000,85.2249374389648400,20.1190490722656250,29.3597297668457030,102,119,77,60,48,12935,2146974683,2147574985,2147370404,2147455579,2147584420,2148618002,2149988461,2147295643,521,-1,9,61092
1350146151,5808,117.3099975585937500,20.2548999786376950,36.6431999206543000,244.8386993408203000,80.8683319091796900,20.2514896392822270,29.3023796081542970,112,119,77,61,48,12926,2146976457,2147573184,2147364077,2147456210,2147622912,2148545179,2149789586,2147288493,455,-1,9,63895
1350146230,5807,113.5800018310546900,20.3687000274658200,36.6551017761230500,246.5057983398437500,77.6615066528320300,20.3490200042724600,29.1867408752441400,112,117,76,61,49,12928,2146990756,2147605979,2147419958,2147459520,2147965421,2149483309,2151056612,2147386477,936,-1,9,36574
1350146321,5803,109.4700012207031200,20.4433002471923830,36.6636009216308600,248.7413024902343800,74.9409179687500000,20.4318008422851560,29.0528602600097660,116,114,77,62,49,12925,2147001170,2147632054,2147458953,2147459474,2148297856,2150233344,2151979492,2147468242,1003,-2,9,41189
1350146403,5808,105.8799972534179700,20.5387992858886720,36.6716003417968750,251.2371063232422000,72.1061477661132800,20.5180797576904300,28.9075298309326170,115,114,75,62,48,12922,2147004754,2147635712,2147462363,2147457225,2148393197,2150255835,2151847460,2147463542,760,-1,9,4378
1350146506,5758,101.8399963378906200,20.5951995849609380,36.6730003356933600,256.7763977050781000,69.7677307128906200,20.5892791748046880,28.6399993896484380,111,111,75,62,49,12931,2146986852,2147581732,2147356196,2147450852,2147884416,2148735698,2149664576,2147300306,806,-2,9,32932
1350146597,5808,99.4100036621093800,20.7504997253417970,36.6806983947753900,259.4500122070312500,65.5864791870117200,20.7166404724121100,28.4748001098632800,115,111,77,61,47,12925,2147037814,2147695506,2147544118,2147462473,2149183021,2151811419,2153670418,2147626459,1001,-1,9,40011
1350146712,5808,96.8600006103515600,20.8614006042480470,36.6859016418457000,260.6028137207031000,61.3639297485351560,20.8453292846679700,28.3738594055175780,117,114,76,61,47,12912,2147062985,2147732672,2147606674,2147464347,2149711835,2152734034,2154642130,2147725549,840,-1,9,15460
1350146767,5808,95.0400009155273400,21.0156002044677730,36.6931991577148440,262.7052917480469000,56.3535995483398440,20.9981307983398440,28.2241992950439450,109,114,77,59,48,12914,2147072722,2147738523,2147609645,2147465545,2149902592,2152889170,2154653915,2147740068,534,-2,9,28
1350146834,5808,93.2099990844726600,21.1175003051757800,36.7042007446289060,265.8183898925781000,52.7720794677734400,21.1074199676513670,28.0525703430175780,104,113,77,60,48,12913,2147018459,2147630372,2147417152,2147455926,2148694025,2150029924,2150953490,2147422016,708,-2,9,14372
1350146913,5806,91.1299972534179700,21.2859001159667970,36.7136001586914060,267.3174133300781000,47.3799705505371100,21.2720699310302730,27.9253501892089840,106,113,76,61,49,12904,2147030747,2147642852,2147427300,2147454171,2148919506,2150307081,2151166080,2147448438,553,-2,9,3011
1350147003,5810,88.2799987792968800,21.4811992645263670,36.7308998107910160,268.6253967285156000,40.4688796997070300,21.4832992553710940,27.7873096466064450,97,116,77,62,49,12905,2147142994,2147830308,2147701275,2147467730,2151528996,2155149074,2156605174,2147940480,453,-1,8,49511
1350147058,5809,85.8499984741211000,21.6944999694824220,36.7324981689453100,270.1239929199219000,33.5386199951171900,21.6953392028808600,27.6424007415771500,92,119,77,61,49,12906,2147118134,2147776932,2147599369,2147459995,2150942418,2153659968,2154618157,2147774006,662,-2,9,6894
1350147113,5807,83.6100006103515600,21.8498001098632800,36.7466011047363300,271.5990905761719000,28.2599105834960940,21.8570003509521500,27.5194606781005860,88,119,77,62,48,12905,2147101632,2147738066,2147529636,2147455378,2150523894,2152624694,2153281654,2147657545,678,-1,9,8220
1350147168,5804,81.6699981689453100,22.0482997894287100,36.7522010803222660,273.2160949707031000,23.1699199676513670,22.0130195617675780,27.3938198089599600,89,118,77,61,48,12896,2147126509,2147762130,2147556672,2147456502,2151058084,2153366116,2153909906,2147716992,1021,-2,9,8535
1350147223,5806,80.1299972534179700,22.0713005065917970,36.7507019042968750,274.8157958984375000,21.5657691955566400,22.0622196197509770,27.3123207092285160,89,118,78,61,47,12896,2147151204,2147795410,2147581732,2147457526,2151620589,2154143012,2154602322,2147783241,1300,-1,9,19183
1350147314,5803,77.6500015258789000,22.2422008514404300,36.7471008300781250,276.1556091308594000,15.9608402252197270,22.2342205047607420,27.1924400329589840,83,118,76,62,48,12893,2147213705,2147880859,2147671168,2147464539,2153111670,2156258688,2156469147,2147964224,1681,-2,9,18725
1350147369,5805,75.7900009155273400,22.4657001495361330,36.7545013427734400,276.7997131347656000,9.3171634674072270,22.4383201599121100,27.0869903564453120,83,121,78,61,48,12887,2147259602,2147930733,2147717357,2147465078,2154202093,2157598171,2157471981,2148070582,1487,-1,9,23290
1350147424,5807,74.0699996948242200,22.5832004547119140,36.6986999511718750,276.7228088378906000,5.2673039436340330,22.5628509521484380,27.0408096313476560,81,120,78,61,48,12879,2147373101,2148075136,2147881856,2147475190,2156761499,2161371794,2160951872,2148398811,1354,-1,9,25373
1350147491,5804,72.0299987792968800,22.6793994903564450,36.6995010375976560,276.0752868652344000,2.6009020805358887,22.6448993682861330,27.0331497192382800,80,123,77,62,48,12879,2147395748,2148091136,2147872612,2147475794,2157207195,2161508937,2160659510,2148389568,1515,-2,9,65115
1350147558,5807,69.9599990844726600,22.8843002319335940,36.7162017822265600,275.5226135253906000,-4.0633320808410645,22.8501205444335940,26.9736003875732420,80,122,78,62,48,12877,2147357293,2148025444,2147773696,2147469897,2156280137,2159707638,2158650998,2148211629,1874,-1,9,18462
1350147637,5806,67.5500030517578100,23.1884994506835940,36.7276992797851560,276.0085144042969000,-14.5256500244140620,23.1728401184082030,26.8288097381591800,80,122,79,62,47,12882,2147476635,2148150326,2147891254,2147476690,2158910838,2162995520,2161269650,2148478006,2310,-1,9,47084
1350147692,5806,65.8099975585937500,23.2910003662109380,36.7257995605468750,278.7775878906250000,-17.3697700500488280,23.2606906890869140,26.6896800994873050,77,123,77,61,48,12886,2147587410,2148280512,2148014884,2147482029,2161286080,2166003053,2163689097,2148732452,2061,-2,9,12374
1350147759,5803,64.4700012207031200,23.2947998046875000,36.7201995849609400,279.8569030761719000,-18.2784996032714840,23.2887592315673830,26.6382102966308600,82,124,78,61,48,12893,2148277376,2149185243,2148934838,2147535853,2177263698,2189140882,2184759744,2150825691,2138,-2,9,19803
1350147862,5805,62.2599983215332000,23.2707996368408200,36.6124992370605500,276.7083129882812500,-17.6527194976806640,23.2694301605224600,26.7644500732421880,81,121,78,62,48,12882,2148479716,2149394816,2149111259,2147550628,2181921846,2194677202,2188878345,2151267099,2554,-2,9,55558
1350147953,5806,59.8400001525878900,23.5359992980957030,36.6568984985351560,274.9096984863281000,-25.7712192535400400,23.5204696655273440,26.7352199554443360,78,122,79,62,48,12881,2148693101,2149612937,2149278052,2147560000,2186994953,2200203145,2192574866,2151758061,2389,-2,9,53594
1350148008,5808,58.0600013732910160,23.6529006958007800,36.6792984008789060,275.7131042480469000,-29.5160007476806640,23.6364002227783200,26.6596107482910160,79,123,76,61,48,12867,2148889197,2149821942,2149456557,2147577170,2191038646,2204542253,2195675529,2152165558,1831,-1,9,61830
1350148075,5806,55.9700012207031250,23.8572998046875000,36.6833992004394500,276.9118957519531000,-37.0603485107421900,23.8702507019042970,26.5236091613769530,77,124,78,61,48,12884,2149151332,2150064850,2149678043,2147597001,2196230509,2209541220,2198995392,2152614454,1641,-2,9,29186
1350148229,5807,55.2700004577636700,24.1499996185302730,36.6613998413085940,275.4197998046875000,-46.1751098632812500,24.1532707214355470,26.4710292816162100,74,126,80,62,46,12866,2149101696,2150026752,2149893586,2147685933,2194170587,2206445641,2196053961,2152410112,755,-2,10,31741
1350148339,5805,53.7999992370605500,24.2539005279541000,36.6379013061523440,274.1348876953125000,-49.2909584045410160,24.2501602172851560,26.4825801849365230,70,122,78,63,48,12866,2148050404,2148672832,2148304045,2147515794,2171362240,2174904950,2168247515,2149352996,747,-2,9,22961
1350148618,5806,51.6800003051757800,24.7082996368408200,36.6202011108398440,270.7460937500000000,-64.4878387451171900,24.7236595153808600,26.4304199218750000,68,126,79,61,48,12867,2148299867,2148920914,2148502765,2147523721,2176773092,2180718400,2172389851,2149817828,1093,-1,9,24792
1350148665,5807,49.6599998474121100,24.8901996612548830,36.5988998413085940,269.3041992187500000,-69.9042434692382800,24.8928298950195300,26.4213600158691400,70,122,78,63,47,12856,2150067291,2150967643,2150615744,2147765001,2214597805,2228348169,2211116379,2154333421,386,-2,9,20702
1350148725,5807,47.6300010681152340,25.0363998413085940,36.5379981994628900,267.7500000000000000,-73.8195571899414000,25.0152492523193360,26.4348106384277340,69,121,78,61,47,12855,2150021549,2150796918,2150222646,2147691401,2215973330,2228132617,2209539931,2154433042,2249,-2,9,33055
1350150049,5809,45.8899993896484400,26.6166992187500000,36.2769012451171900,239.0160064697265600,-124.9414978027343800,26.6249008178710940,27.0041198730468750,61,116,76,60,48,12873,2148234870,2148781961,2148284434,2147499300,2174737042,2177106825,2168988269,2149610185,1775,-2,9,46728
1350150171,5807,43.4599990844726560,26.6280002593994140,36.2697982788085940,238.5292053222656200,-125.1307983398437500,26.6308994293212900,27.0231494903564450,59,113,76,61,46,12881,2148370752,2148886253,2148342098,2147508644,2177570578,2179456822,2170084653,2149785883,1911,-1,9,22608
1350150218,5809,41.6699981689453100,26.6287994384765620,36.2667007446289060,238.3054046630859400,-125.1765975952148400,26.6323509216308600,27.0324993133544920,60,114,77,62,47,12882,2148520100,2149005174,2148430601,2147520969,2180956086,2182530221,2171840813,2150013860,1845,-2,9,43398
1350150265,5809,39.4599990844726560,26.6278991699218750,36.2649993896484400,238.2263946533203000,-125.1591033935546900,26.6317996978759770,27.0361309051513670,59,115,76,60,47,12880,2148679030,2149139474,2148506230,2147537892,2184712448,2185885129,2173778276,2150338770,1598,-1,9,37413
1350150299,5808,37.6199989318847660,26.6284008026123050,36.2678985595703100,238.2716979980468800,-125.1395034790039000,26.6311798095703120,27.0343894958496100,59,117,76,62,46,12881,2148790226,2149222994,2148563318,2147548909,2187617938,2188448210,2175239387,2150599954,1675,-1,9,65460